loading
|

OBJECT B, 60746

Orbit data source: Space-Track

OBJECT B, 60746 is a satellite owned by Yunyao yuhang (CN) in SSO that was launched on Thu, 29 Aug 2024 UTC via a GUSHENXING 1 launch vehicle from the Yellow Sea Launch Area, China (YSLA). Unknown objects in Earth's orbit typically refer to objects detected orbiting the Earth but have not yet been identified or cataloged. These objects could be anything from previously untracked satellites, spent rocket stages, debris from satellite collisions, or even natural meteoroids temporarily captured by Earth's gravity.

Loading next visibility...
Loading greatness...
OBJECT B details
Identifier
60746, 2024-153B
Orbit
SSO
Last TLE update8 hours ago
Origin
Flag of CNYunyao yuhang (CN / PRC)
ManufacturerYunyao yuhang
Mission statusOperational
MissionUnknown
Bus & MotorYY-1, Unknown motor
Mass~50 kg wet, ~50 kg dry
Launch date (UTC)
2024-08-29 (3 weeks ago)
Launch vehicle
GUSHENXING 1
Launch site
Yellow Sea Launch Area, China (YSLA)
Object typeUnknown
Radar Cross SectionMedium (>0.1 m² and <1 m²)

Expand to show TLE details & history

TLE from 8 hours ago
0 OBJECT B
1 60746U 24153B   24261.61850265  .00061112  00000-0  36874-2 0  9997
2 60746  97.6178  19.0388 0016140 221.1361 138.8653 15.10373627  2933
Epoch: 2024-09-17T14:50Z
Definitive object data (Epoch: 2024-09-17T14:50:38.628Z)
Latitude-0.00002°
Longitude159.34728°
Altitude546.544 km
Speed7.584 km/s
True Right ascension01h 16m 09s
True Declination0° 00' 00"
Sunlit
Object was in full shadow at TLE epoch
Predictive object data (real-time)
Latitude75.02125°
Longitude129.87937°
Altitude556.665 km
Speed7.585 km/s
Apparent Right ascension02h 49m 10s
Apparent Declination24° 17' 38"
Sunlit
Object is in daylight
Predictive observer data (real-time)
Local Sidereal Time15:57:05
Azimuth16.919° NNE
Elevation-23.867°
Doppler factor1
Orbital elements
Apogee543.201 km
Perigee520.894 km
Semi-major axis6,910.184 km
Eccentricity0.001614
Inclination97.6178°
RAAN19.0388°
Arg. of periapsis221.1361°
True anomaly138.98678°
Mean anomaly138.8653°
Eccentric anomaly138.92606°
Mean motion3.77841 °/min
BSTAR0.0036874
Period95.28 mins
No data available

OBJECT B Visibility forecast

Observer location: 39.9160978°, -105.1181434

OBJECT B is not visible in the next 10 days
Span
Click to sort rows by Start time (UTC) header in descending order
Start Az.
Max El. time (UTC)
Max El. Az.
Max El.
End time (UTC)
End Az.